This is the latest recevied weather packets stored in our database for station/object OH2CHY-10. If no packets are shown the sender has not sent any weather packets the latest 10 day(s).
| Time | Temp. | Humidity | Pressure | Rain* | Wind** | Luminosity | Snow |
|---|---|---|---|---|---|---|---|
| 1777973363 | 16.11° C | 40% | 1002.3 hPa | - | - | - | - |
| 1777972463 | 15° C | 43% | 1002.1 hPa | - | - | - | - |
| 1777971563 | 14.44° C | 43% | 1001.8 hPa | - | - | - | - |
| 1777970663 | 16.11° C | 41% | 1001.3 hPa | - | - | - | - |
| 1777969763 | 13.33° C | 46% | 1001.4 hPa | - | - | - | - |
| 1777968863 | 13.89° C | 44% | 1001.4 hPa | - | - | - | - |
| 1777967963 | 15° C | 43% | 1001.2 hPa | - | - | - | - |
| 1777967063 | 15° C | 46% | 1001.2 hPa | - | - | - | - |
| 1777966162 | 13.89° C | 47% | 1001 hPa | - | - | - | - |
| 1777965263 | 13.89° C | 49% | 1001 hPa | - | - | - | - |
| 1777964362 | 13.33° C | 53% | 1000.9 hPa | - | - | - | - |
| 1777963462 | 12.78° C | 54% | 1000.9 hPa | - | - | - | - |
| 1777962562 | 11.67° C | 58% | 1000.9 hPa | - | - | - | - |
| 1777961661 | 11.11° C | 61% | 1000.8 hPa | - | - | - | - |
| 1777960761 | 10° C | 64% | 1000.9 hPa | - | - | - | - |
| 1777959861 | 9.44° C | 66% | 1001 hPa | - | - | - | - |
| 1777958961 | 8.89° C | 68% | 1000.9 hPa | - | - | - | - |
| 1777958061 | 8.89° C | 70% | 1001.1 hPa | - | - | - | - |
| 1777957161 | 9.44° C | 69% | 1001.2 hPa | - | - | - | - |
| 1777956261 | 11.11° C | 67% | 1001.2 hPa | - | - | - | - |
| 1777955361 | 9.44° C | 80% | 1001.4 hPa | - | - | - | - |
| 1777954461 | 5.56° C | 85% | 1001.4 hPa | - | - | - | - |
| 1777953561 | 5° C | 87% | 1001.3 hPa | - | - | - | - |
| 1777952660 | 5° C | 87% | 1001.4 hPa | - | - | - | - |
| 1777951760 | 5° C | 87% | 1001.5 hPa | - | - | - | - |
* Rain since midnight (hover to see other rain measurements)
** Current wind speed in m/s (hover to see current wind gust speed)